Weather History for Wisconsin Rapids, WI

Change the Weather History Date:

Monday, October 29, 2012

  Actual Average Record
Temperature  
Mean Temperature 36 °F -  
Max Temperature 50 °F 52 °F 77 °F (1950)
Min Temperature 21 °F 30 °F 11 °F (1952)
Degree Days  
Heating Degree Days 30    
Moisture  
Dew Point 21 °F    
Average Humidity 61    
Maximum Humidity 88    
Minimum Humidity 28    
Precipitation  
Precipitation 0.00 in - - ()
Sea Level Pressure  
Sea Level Pressure 30.35 in    
Wind  
Wind Speed 2 mph (North)    
Max Wind Speed 8 mph    
Max Gust Speed -    
Visibility 10 miles    
Events      
Averages and records for this station are not official NWS values.
T = Trace of Precipitation, MM = Missing Value Source: NWS Daily Summary

Daily Weather History Graph

Daily Weather History Graph

Search for Another Location

Airport:

Trip Planner

Search our weather history database for the weather conditions in past years. The results will help you decide how hot, cold, wet, or windy it might be!

Date:

Astronomy

Oct. 29, 2012 Rise Set
Actual Time 7:33 AM CDT 5:52 PM CDT
Civil Twilight 7:03 AM CDT 6:22 PM CDT
Nautical Twilight 6:28 AM CDT 6:56 PM CDT
Astronomical Twilight 5:55 AM CDT 7:30 PM CDT
Moon 5:42 PM CDT (10/29) 7:24 AM CDT (10/29)
Length of Visible Light 11h 19m
Length of Day
10h 19m
Full, 100% of the Moon is Illuminated
Oct 29
Full
Oct 29
Full
Nov 6
Last Quarter
Nov 13
New
Nov 20
First Quarter

Hourly Weather History & Observations

Time (CDT) Temp. Windchill Dew Point Humidity Pressure Visibility Wind Dir Wind Speed Gust Speed Precip Events Conditions
12:54 AM 25.0 °F - 19.9 °F 81% 30.38 in 10.0 mi Calm Calm - N/A   Clear
1:54 AM 24.1 °F - 19.0 °F 81% 30.39 in 10.0 mi Calm Calm - N/A   Clear
2:54 AM 23.0 °F - 19.0 °F 85% 30.39 in 10.0 mi Calm Calm - N/A   Clear
3:54 AM 23.0 °F - 19.9 °F 88% 30.39 in 10.0 mi Calm Calm - N/A   Clear
4:54 AM 23.0 °F - 19.9 °F 88% 30.40 in 8.0 mi Calm Calm - N/A   Clear
5:54 AM 23.0 °F - 19.9 °F 88% 30.41 in 8.0 mi Calm Calm - N/A   Clear
6:54 AM 21.9 °F - 18.0 °F 85% 30.42 in 9.0 mi Calm Calm - N/A   Clear
7:54 AM 23.0 °F - 19.9 °F 88% 30.42 in 8.0 mi Calm Calm - N/A   Clear
8:54 AM 30.0 °F - 25.0 °F 82% 30.43 in 10.0 mi Calm Calm - N/A   Clear
9:54 AM 37.0 °F - 27.0 °F 67% 30.42 in 10.0 mi Calm Calm - N/A   Clear
10:54 AM 42.1 °F - 24.1 °F 49% 30.40 in 10.0 mi Calm Calm - N/A   Clear
11:54 AM 46.0 °F 43.9 °F 21.0 °F 37% 30.39 in 10.0 mi Variable 4.6 mph - N/A   Clear
12:54 PM 46.9 °F - 19.0 °F 33% 30.38 in 10.0 mi Variable 5.8 mph - N/A   Clear
1:54 PM 48.9 °F - 17.1 °F 28% 30.35 in 10.0 mi Variable 3.5 mph - N/A   Clear
2:54 PM 50.0 °F - 19.0 °F 29% 30.33 in 10.0 mi NNE 5.8 mph - N/A   Clear
3:54 PM 50.0 °F - 19.0 °F 29% 30.32 in 10.0 mi North 8.1 mph - N/A   Clear
4:54 PM 48.0 °F - 19.9 °F 33% 30.31 in 10.0 mi North 8.1 mph - N/A   Clear
5:54 PM 43.0 °F 40.3 °F 19.9 °F 40% 30.30 in 10.0 mi NNW 4.6 mph - N/A   Clear
6:54 PM 37.0 °F 34.5 °F 21.0 °F 52% 30.30 in 10.0 mi NNW 3.5 mph - N/A   Clear
7:54 PM 36.0 °F - 21.9 °F 57% 30.30 in 10.0 mi Calm Calm - N/A   Clear
8:54 PM 35.1 °F 31.0 °F 21.9 °F 59% 30.29 in 10.0 mi North 4.6 mph - N/A   Clear
9:54 PM 34.0 °F 31.0 °F 23.0 °F 64% 30.27 in 10.0 mi North 3.5 mph - N/A   Clear
10:54 PM 36.0 °F 30.3 °F 24.1 °F 62% 30.25 in 10.0 mi NNE 6.9 mph - N/A   Clear
11:54 PM 36.0 °F 33.3 °F 23.0 °F 59% 30.24 in 10.0 mi NNE 3.5 mph - N/A   Clear